Torna al catalogo

STARLINK-3680

AttivoComunicazioniVLEO
NORAD 51969·PAYLOAD·🇺🇸 United States

Lanciato Mar 9, 2022 da Cape Canaveral Space Force Station

Loading…

Prossimi Passaggi (prossime 24 ore)

TLE

AggiornatoSource: CelesTrak SupGP

Epoca: Sep 14, 2026, 20:41 UTC

1 51969C 22025P   26257.86229167  .00040929  00000+0  13159-2 0  2575
2 51969  53.1573 223.9580 0001232  98.4712 247.4295 15.31688151    17

Traccia STARLINK-3680 in tempo reale con AllMySat

Download on the App Store